Probability
1 1 1 0 0 1 2 2 1 1 2 5 5 3 1 0 0 0 0 0 0 0 0 0 0 0 0 0 0 0 0 0 0 0 0 0 0 0 0 0 0 0 0 0
0 0 0 0 0 1 2 2 1 1 3 5 5 3 1 0 0 0 0 0 0 0 0 0 0 0 0 0 0 0 0 0 0 0 0 0 0 0 0 0 0 0 0 0
0 0 0 0 0 0 1 2 2 3 5 6 6 3 1 0 0 0 0 0 0 0 0 0 0 0 0 0 0 0 0 0 0 0 0 0 0 0 0 0 0 0 0 0
0 0 0 0 0 0 0 1 3 4 5 6 4 2 1 0 0 0 0 0 0 0 0 0 0 0 0 0 0 0 0 0 0 0 0 0 0 0 0 0 0 0 0 0
0 0 0 0 0 0 0 1 2 3 3 2 2 1 0 0 0 0 0 0 0 0 0 0 0 0 0 0 0 0 0 0 0 0 0 0 0 0 0 0 0 0 0 0
0 0 0 0 0 0 0 0 1 1 1 0 0 0 0 0 0 0 0 0 0 0 0 0 0 0 0 0 0 0 0 0 0 0 0 0 0 0 0 0 0 0 0 0
0 0 0 0 0 0 0 0 0 0 0 0 0 0 0 0 0 0 0 0 0 0 0 0 0 0 0 0 0 0 0 0 0 0 0 0 0 0 0 0 0 0 0 0
0 0 0 0 0 0 0 0 0 0 0 0 0 0 0 0 0 0 0 0 0 0 0 0 0 0 0 0 0 0 0 0 0 0 0 0 0 0 0 0 0 0 0 0
0 0 0 0 0 0 0 0 0 0 0 0 0 0 0 0 0 0 0 0 0 0 0 0 0 0 0 0 0 0 0 0 0 0 0 0 0 0 0 0 0 0 0 0
0 0 0 0 0 0 0 0 0 0 0 0 0 0 0 0 0 0 0 0 0 0 0 0 0 0 0 0 0 0 0 0 0 0 0 0 0 0 0 0 0 0 0 0
0 0 0 0 0 0 0 0 0 0 0 0 0 0 0 0 0 0 0 0 0 0 0 0 0 0 0 0 0 0 0 0 0 0 0 0 0 0 0 0 0 0 0 0
0 0 0 0 0 0 0 0 0 0 0 0 0 0 0 0 0 0 0 0 0 0 0 0 0 0 0 0 0 0 0 0 0 0 0 0 0 0 0 0 0 0 0 0
0 0 0 0 0 0 0 0 0 0 0 0 0 0 0 0 0 0 0 0 0 0 0 0 0 0 0 0 0 0 0 0 0 0 0 0 0 0 0 0 0 0 0 0
0 0 0 0 0 0 0 0 0 0 0 0 0 0 0 0 0 0 0 0 0 0 0 0 0 0 0 0 0 0 0 0 0 0 0 0 0 0 0 0 0 0 0 0
0 0 0 0 0 0 0 0 0 0 0 0 0 0 0 0 0 0 0 0 0 0 0 0 0 0 0 0 0 0 0 0 0 0 0 0 0 0 0 0 0 0 0 0
0 0 0 0 0 0 0 0 0 0 0 0 0 0 0 0 0 0 0 0 0 0 0 0 0 0 0 0 0 0 0 0 0 0 0 0 0 0 0 0 0 0 0 0
0 0 0 0 0 0 0 0 0 0 0 0 0 0 0 0 0 0 0 0 0 0 0 0 0 0 0 0 0 0 0 0 0 0 0 0 0 0 0 0 0 0 0 0
0 0 0 0 0 0 0 0 0 0 0 0 0 0 0 0 0 0 0 0 0 0 0 0 0 0 0 0 0 0 0 0 0 0 0 0 0 0 0 0 0 0 0 0
0 0 0 0 0 0 0 0 0 0 0 0 0 0 0 0 0 0 0 0 0 0 0 0 0 0 0 0 0 0 0 0 0 0 0 0 0 0 0 0 0 0 0 0
0 0 0 0 0 0 0 0 0 0 0 0 0 0 0 0 0 0 0 0 0 0 0 0 0 0 0 0 0 0 0 0 0 0 0 0 0 0 0 0 0 0 0 0
0 0 0 0 0 0 0 0 0 0 0 0 0 0 0 0 0 0 0 0 0 0 0 0 0 0 0 0 0 0 0 0 0 0 0 0 0 0 0 0 0 0 0 0
0 0 0 0 0 0 0 0 0 0 0 0 0 0 0 0 0 0 0 0 0 0 0 0 0 0 0 0 0 0 0 0 0 0 0 0 0 0 0 0 0 0 0 0
0 0 0 0 0 0 0 0 0 0 0 0 0 0 0 0 0 0 0 0 0 0 0 0 0 0 0 0 0 0 0 0 0 0 0 0 0 0 0 0 0 0 0 0
0 0 0 0 0 0 0 0 0 0 0 0 0 0 0 0 0 0 0 0 0 0 0 0 0 0 0 0 0 0 0 0 0 0 0 0 0 0 0 0 0 0 0 0
0 0 0 0 0 0 0 0 0 0 0 0 0 0 0 0 0 0 0 0 0 0 0 0 0 0 0 0 0 0 0 0 0 0 0 0 0 0 0 0 0 0 0 0
0 0 0 0 0 0 0 0 0 0 0 0 0 0 0 0 0 0 0 0 0 0 0 0 0 0 0 0 0 0 0 0 0 0 0 0 0 0 0 0 0 0 0 0
0 0 0 0 0 0 0 0 0 0 0 0 0 0 0 0 0 0 0 0 0 0 0 0 0 0 0 0 0 0 0 0 0 0 0 0 0 0 0 0 0 0 0 0
Wind_Speed
4 5 2 3 4 7 8 8 5 10 11 12 15 16 15 14 14 13 13 12 12 11 10 10 10 10 10 10 10 10 11 11 10 9 9 8 7 6 5 5 6 4 4 5
5 5 3 3 6 7 9 11 12 13 9 11 14 13 14 14 14 14 13 12 12 11 11 10 10 9 9 9 8 9 10 10 9 8 8 7 6 5 4 4 4 4 5 6
3 2 3 4 8 8 9 9 6 6 8 13 14 13 13 13 13 13 13 12 11 10 10 9 8 8 8 8 8 8 8 8 8 7 7 6 6 5 5 4 4 4 4 6
2 0 2 5 6 9 11 12 12 15 15 13 13 12 11 11 13 13 13 12 10 9 9 8 7 7 7 7 7 7 7 7 7 7 7 6 5 5 4 3 2 3 4 5
2 1 7 5 4 5 7 9 12 15 15 16 17 15 10 9 11 12 12 11 9 8 8 7 7 6 6 6 6 7 7 6 6 6 6 5 5 4 3 2 2 2 3 4
4 2 4 5 6 5 6 7 10 14 15 16 14 8 7 9 11 12 11 9 9 8 7 7 6 5 5 6 6 6 7 6 6 6 5 4 4 3 1 1 2 2 3 3
3 3 7 6 3 1 1 6 10 11 12 11 5 8 13 13 12 11 10 9 9 8 7 6 5 5 5 6 6 6 6 6 5 4 3 3 2 1 1 1 1 1 1 2
3 4 6 7 4 6 7 11 11 11 12 13 15 18 16 14 13 12 11 10 9 7 7 6 5 5 6 6 5 5 5 5 4 2 2 3 1 0 1 1 1 0 1 1
8 7 8 9 10 10 11 13 13 14 15 17 18 17 15 13 12 11 10 9 8 8 7 6 5 5 6 5 4 4 4 3 2 2 2 1 1 1 1 2 2 2 2 2
9 9 10 11 12 12 13 14 14 16 17 18 18 17 15 13 11 10 9 9 8 8 8 6 6 5 5 4 3 3 3 2 2 1 1 1 2 3 4 5 5 5 4 4
10 11 11 11 11 13 14 15 16 16 16 16 17 16 14 12 11 9 8 8 8 7 7 7 6 6 5 4 3 2 1 1 1 1 1 2 4 5 5 5 4 4 5 5
7 11 10 12 12 14 14 15 16 16 16 15 14 14 13 11 10 9 8 8 7 7 7 7 6 6 5 4 3 2 1 1 1 1 1 2 5 5 7 6 5 5 3 3
12 13 15 15 14 14 14 15 15 16 16 15 13 13 12 11 10 9 9 9 8 7 7 6 5 5 4 3 3 1 1 1 2 0 1 1 2 4 5 3 1 1 2 3
14 16 17 15 15 15 16 16 16 16 15 14 13 12 12 11 11 10 9 8 8 7 6 5 4 4 3 3 2 2 2 1 2 1 0 0 0 0 2 3 4 3 4 7
14 14 15 16 15 16 15 16 16 15 14 14 13 12 12 11 10 9 8 8 6 6 5 4 4 3 2 2 2 2 1 0 1 1 0 1 1 1 2 3 2 2 3 3
15 16 17 17 16 16 16 16 15 15 14 14 12 12 12 11 9 8 7 6 5 4 4 3 2 2 3 2 2 2 2 1 2 2 1 2 1 1 2 2 2 1 1 2
17 17 17 17 17 16 15 15 14 14 14 13 13 12 11 10 9 8 7 5 5 5 3 2 1 1 1 2 3 3 3 5 4 3 0 2 2 2 2 2 2 1 3 4
15 16 16 16 15 15 15 15 14 15 14 14 13 12 11 10 8 7 6 5 5 4 3 3 3 3 3 2 1 3 2 3 4 2 3 4 2 2 2 2 2 2 2 2
16 17 17 16 15 15 14 14 14 14 14 13 12 11 10 9 8 7 5 5 4 4 4 6 2 3 2 1 3 4 3 1 3 4 4 4 1 2 2 2 2 2 2 2
17 17 17 17 16 15 14 14 14 13 13 12 12 11 9 8 7 6 5 3 3 4 5 5 4 4 2 3 2 5 2 1 3 4 3 3 3 3 2 2 2 2 2 2
18 18 18 17 16 16 15 15 14 13 13 12 11 10 9 8 7 6 4 4 5 4 4 5 3 2 2 2 3 5 1 3 4 4 3 3 3 3 3 2 2 2 2 2
17 17 17 17 16 15 14 14 14 14 13 12 11 10 9 7 6 5 2 4 6 4 3 4 3 5 4 3 6 3 2 4 4 4 4 3 3 3 3 2 2 1 2 2
15 16 16 16 16 15 15 14 14 13 12 12 11 10 9 7 6 6 6 5 6 4 1 4 6 4 3 5 6 1 3 4 3 4 4 4 4 3 3 2 2 2 2 2
15 15 15 16 16 15 15 14 13 11 12 11 10 10 8 6 5 3 7 8 8 5 3 6 4 1 3 5 5 1 3 4 3 3 4 4 4 4 3 2 2 2 2 2
15 15 16 16 15 13 13 13 13 12 12 9 11 10 8 6 5 7 8 9 9 6 5 6 6 4 5 7 2 2 4 4 4 2 4 3 3 4 3 3 2 2 2 2
14 13 12 12 10 10 11 11 11 10 10 10 9 9 8 6 6 8 7 9 10 6 5 6 7 7 7 5 2 4 4 5 4 2 2 2 3 3 3 3 3 2 2 3
14 12 11 12 11 12 11 11 11 11 11 10 10 10 9 8 7 8 9 8 8 7 7 7 7 7 5 2 4 3 3 3 3 3 3 3 3 3 4 3 2 2 2 3
Wind_Direction
243 255 242 316 336 4 3 9 37 101 122 136 132 130 127 124 120 115 111 107 105 102 98 94 92 91 89 90 92 94 95 94 93 93 93 92 92 93 93 90 89 86 80 72
241 210 160 46 28 34 38 59 88 100 96 120 120 124 128 129 127 122 118 114 111 108 106 102 99 99 98 98 99 100 100 101 102 103 102 101 99 95 90 80 71 67 63 65
271 161 160 58 32 44 51 53 91 99 112 125 123 127 130 132 129 128 124 120 115 111 106 105 104 106 108 106 104 105 106 108 110 109 105 105 103 95 83 76 72 66 65 79
303 231 92 80 66 74 72 65 80 102 117 122 120 116 114 125 128 126 124 121 118 116 113 111 110 108 109 109 110 110 109 111 113 112 107 105 98 91 83 71 63 70 65 79
324 93 113 113 78 67 88 84 97 112 115 117 115 105 95 110 121 125 125 124 124 123 123 123 122 122 123 122 123 117 112 112 111 108 102 96 89 84 69 52 45 72 70 74
323 18 87 81 57 69 108 106 117 127 132 139 142 125 125 127 125 124 126 127 127 127 126 123 126 135 135 127 117 109 106 102 99 96 95 87 76 71 55 21 38 55 67 72
354 77 84 48 20 321 0 126 136 138 143 150 139 114 130 132 126 127 128 131 133 132 130 131 136 137 125 117 111 108 108 105 104 110 119 104 87 56 351 16 51 51 63 99
9 63 71 20 42 59 94 117 127 126 125 117 110 117 128 131 132 134 134 135 135 131 132 136 140 133 120 112 114 114 112 108 106 97 73 88 91 34 359 334 313 115 69 87
47 75 79 63 81 100 114 119 119 119 121 123 124 128 130 132 135 136 137 137 137 136 135 133 133 127 123 124 128 123 114 106 101 83 65 43 334 343 11 3 8 26 34 38
106 105 101 95 98 102 107 114 118 124 128 130 130 133 134 136 138 140 141 142 142 141 139 138 140 137 138 137 131 124 130 144 161 150 137 78 17 31 42 24 16 12 26 27
110 123 117 106 106 109 112 115 119 125 129 132 134 137 138 140 142 144 143 142 144 143 142 142 144 144 144 137 128 130 155 184 218 167 136 102 78 48 50 63 48 21 16 11
143 149 134 126 123 122 122 122 125 127 127 133 137 138 139 138 138 139 140 142 143 144 144 143 144 146 149 151 154 176 226 242 251 166 156 157 140 117 61 95 111 84 54 15
110 123 121 125 125 125 125 125 127 130 132 135 136 136 135 134 139 142 143 144 146 145 142 142 145 147 151 156 158 183 261 293 300 297 140 149 137 151 154 142 161 271 293 304
113 119 125 127 127 127 127 128 129 130 132 133 135 135 134 135 138 139 138 138 140 140 141 145 146 140 149 161 173 207 243 219 277 313 2 75 98 98 132 150 166 181 222 251
130 131 129 129 129 130 132 133 132 132 132 134 136 137 137 136 137 136 137 138 141 146 142 137 133 140 166 171 189 215 252 16 283 305 188 93 70 63 73 76 78 110 158 202
133 131 134 137 139 141 143 142 139 138 139 140 139 138 137 137 136 137 138 140 147 137 119 116 131 161 161 162 215 216 157 106 306 292 184 123 106 75 74 80 77 60 70 56
144 145 147 147 148 150 148 146 143 142 143 143 141 139 139 138 138 141 142 137 123 111 112 119 90 337 175 177 243 260 185 166 211 251 156 90 75 76 74 73 79 59 72 65
153 151 152 152 152 151 148 145 144 144 145 145 143 143 144 146 148 145 141 136 137 137 130 101 60 342 343 25 323 304 279 172 175 144 102 82 68 84 89 83 79 72 91 137
150 150 151 153 152 150 148 147 146 145 146 147 147 147 148 150 148 146 148 160 162 153 123 102 97 272 271 67 317 271 270 154 127 114 105 117 155 90 88 82 75 64 46 39
150 151 152 153 152 150 149 147 145 146 149 150 148 150 154 152 151 152 154 144 100 109 128 132 204 241 241 136 246 282 274 119 114 114 112 120 111 99 89 82 73 59 49 32
152 153 154 155 152 151 151 149 148 150 152 153 154 156 155 154 159 156 178 158 128 122 127 146 232 273 64 50 243 269 234 112 113 111 112 114 111 105 95 87 81 72 50 27
154 156 157 154 152 151 150 150 153 155 155 158 160 158 155 160 163 151 127 105 129 129 204 189 146 70 50 325 283 271 125 116 122 120 119 121 122 121 114 107 91 78 55 26
155 157 156 154 153 151 151 155 158 159 161 163 163 162 166 175 177 173 156 143 143 154 216 82 98 88 20 293 280 272 105 113 122 130 133 135 134 130 126 119 106 83 58 26
156 157 154 152 152 154 158 160 159 160 165 167 166 167 173 182 185 153 115 116 118 140 133 119 138 129 301 276 271 193 123 136 144 146 139 136 134 137 136 132 118 101 88 60
157 157 156 157 159 161 162 161 160 165 170 171 169 172 186 195 174 139 135 140 145 160 157 166 194 222 256 269 270 87 84 86 78 79 113 125 140 139 131 129 122 112 96 81
158 161 159 165 163 162 164 166 169 173 177 175 173 179 188 184 160 138 145 157 168 191 202 178 190 214 238 247 122 103 120 142 152 166 126 135 132 124 120 123 129 108 98 93
162 160 161 169 170 172 172 173 176 179 183 179 176 179 183 180 168 162 169 170 175 193 210 202 195 202 210 160 115 121 132 135 139 142 144 143 134 136 137 148 141 134 144 121